Theta_e
303 300 296 301 301 302 302 302 300 301 303 301 301 300 300 301 301 299 300 299 299 298 297 297 296 294 293 292 292 292 292 292 293 293 294 296 298 301 301 301 302 303 303 302
300 300 301 302 302 302 301 296 296 300 301 300 299 300 300 300 299 300 299 299 298 297 297 295 295 293 292 291 291 291 291 292 293 294 294 295 296 299 301 302 305 304 304 303
297 303 301 302 301 300 300 297 297 299 299 298 299 297 301 300 299 300 299 298 297 296 295 295 293 291 290 290 290 290 290 291 293 294 295 295 296 298 300 301 305 307 306 306
299 301 301 302 301 298 296 301 300 299 293 294 298 295 299 300 300 299 297 297 295 295 294 293 291 290 289 289 288 289 290 291 292 295 295 296 297 298 299 302 303 305 309 308
297 301 302 299 301 299 298 299 300 300 289 294 294 293 298 300 300 297 295 295 295 294 293 291 289 288 288 288 288 288 289 290 292 294 296 297 299 299 300 302 304 305 307 306
296 299 298 299 299 299 300 297 296 295 289 291 291 292 297 298 299 296 295 295 294 293 291 289 288 288 287 288 288 288 289 291 293 294 296 299 300 302 301 302 305 308 307 309
297 299 298 298 300 299 295 289 288 290 291 296 287 295 297 297 295 295 294 294 293 292 290 289 288 287 287 287 287 288 288 291 293 294 296 299 301 302 302 303 306 306 308 309
291 292 293 299 299 295 297 291 289 288 293 293 286 294 296 296 295 294 294 293 292 291 291 289 288 287 286 286 287 286 288 290 292 294 295 297 300 303 303 304 306 306 308 308
291 295 297 298 299 295 294 293 295 287 284 292 290 292 296 295 289 292 293 293 292 291 291 289 288 287 286 285 286 286 287 289 292 294 294 296 299 302 305 306 307 307 307 308
295 290 291 295 298 296 293 295 291 287 290 290 290 287 297 290 288 288 290 292 292 291 290 290 289 287 286 285 285 286 286 288 290 293 295 296 299 301 302 305 306 307 306 307
291 287 291 295 289 291 290 290 289 288 293 290 290 293 289 289 285 286 289 292 291 290 289 288 290 287 286 285 285 285 285 286 288 291 294 297 298 299 299 302 301 302 302 301
296 294 292 292 297 297 293 291 294 290 287 292 294 297 285 285 285 290 292 293 292 291 288 287 289 288 286 285 285 285 285 285 287 290 293 295 297 298 298 299 299 301 302 303
296 288 286 292 293 294 292 295 295 289 294 294 290 292 285 283 285 293 292 294 291 290 288 287 287 289 287 285 285 285 285 285 287 290 292 294 295 295 296 297 299 300 302 303
297 296 290 292 289 286 291 295 297 293 286 289 292 294 295 293 285 288 292 294 291 288 286 286 286 289 288 286 285 285 285 285 286 287 290 292 294 296 296 298 298 299 300 302
294 291 294 294 292 290 294 293 291 293 294 291 294 288 292 293 289 293 294 293 291 288 286 285 285 287 288 287 286 285 285 285 286 287 289 291 293 295 297 298 299 299 299 300
295 288 286 286 292 293 292 293 292 291 292 291 294 294 294 294 292 293 292 291 291 287 285 285 284 286 288 287 286 285 285 285 286 286 287 289 291 293 295 296 297 298 300 300
292 287 284 287 290 288 291 288 287 286 284 286 287 289 279 283 281 291 291 291 290 287 286 286 284 285 287 288 287 286 285 285 285 286 286 287 289 291 292 294 296 298 298 298
287 287 282 284 283 288 295 293 289 290 289 286 286 287 285 289 293 293 292 290 289 287 286 286 285 284 286 289 289 288 287 286 286 286 286 287 287 288 290 292 292 293 294 295
291 287 285 286 277 288 294 293 294 294 293 292 291 292 291 294 292 291 291 291 288 287 287 286 286 284 285 287 290 289 289 288 287 286 286 286 287 287 288 289 289 289 291 291
292 291 289 279 284 286 294 294 295 293 291 292 293 293 293 291 287 285 292 289 288 288 287 286 286 285 285 285 288 290 290 289 288 287 287 287 287 288 288 289 289 289 291 290
287 289 292 292 286 286 290 293 294 288 293 295 296 295 294 289 289 292 290 289 289 288 287 287 286 286 286 285 286 288 289 288 287 287 288 288 288 288 288 289 289 290 290 291
287 287 286 286 285 289 291 292 293 294 294 294 294 295 295 294 291 291 290 289 289 289 288 287 286 286 286 286 285 286 287 288 288 288 288 288 288 288 288 288 288 289 288 288
289 289 288 290 290 293 294 294 296 296 296 295 294 295 294 293 292 291 290 289 290 290 288 287 287 286 287 286 286 285 286 287 287 288 289 289 289 288 288 289 288 288 288 288
286 289 289 288 292 292 293 294 295 295 295 295 295 295 293 293 292 291 291 289 290 290 289 287 288 287 287 287 287 286 286 285 286 286 287 287 288 288 288 288 287 287 287 288
290 288 288 288 290 292 292 294 295 295 295 294 294 293 293 293 292 291 291 290 290 289 288 288 288 287 288 287 287 286 286 285 284 285 285 286 287 287 287 286 285 285 285 285
288 292 292 296 298 296 297 299 298 297 296 295 294 293 292 293 293 291 291 290 290 290 290 289 289 288 289 289 288 288 287 286 286 286 286 286 285 285 284 285 286 286 285 285
Wind_Speed
4 5 2 3 2 2 3 3 6 7 8 6 13 19 22 20 8 9 5 0 7 15 24 31 36 40 42 36 38 40 41 37 30 34 37 36 33 26 27 28 33 34 31 28
5 1 2 2 2 2 3 2 6 6 3 7 11 16 17 8 8 11 6 5 11 24 31 33 40 43 38 37 36 37 37 31 27 31 31 30 35 35 29 28 25 27 28 26
4 2 2 1 2 2 3 3 3 7 5 5 6 8 5 3 9 8 3 4 21 29 28 36 39 35 36 36 36 33 31 32 28 27 28 29 29 33 35 30 29 23 27 24
3 3 2 1 2 4 2 1 4 8 5 2 5 5 6 3 5 4 4 18 29 27 30 35 36 37 35 35 33 30 26 26 28 24 26 27 28 32 34 29 29 20 20 24
5 1 1 1 3 4 7 7 10 6 3 4 6 3 7 1 4 1 8 23 28 25 32 35 34 34 34 32 31 27 26 26 25 24 23 25 28 32 31 28 25 24 25 24
5 1 2 2 4 2 5 5 6 4 4 2 4 4 7 4 3 2 9 22 23 30 32 30 31 32 33 30 28 26 25 24 23 22 22 23 23 25 28 24 23 17 21 21
4 2 0 1 3 5 8 6 4 6 4 5 3 1 10 3 4 3 8 18 22 28 30 32 35 33 33 30 28 26 25 25 21 21 20 17 11 19 21 20 19 21 21 18
3 7 2 2 2 4 3 5 5 4 3 6 2 6 6 5 5 3 10 15 23 29 31 33 35 34 32 29 27 26 26 23 18 18 18 15 6 5 17 19 17 19 17 18
3 5 0 2 2 4 3 2 3 2 1 2 4 8 7 3 4 8 13 21 23 26 30 32 34 35 31 29 27 26 23 22 17 15 17 14 9 4 9 14 17 17 15 13
3 4 2 2 3 4 5 2 3 3 3 6 6 6 8 6 7 6 9 17 18 21 28 33 34 33 30 28 26 22 22 21 17 14 14 13 11 9 10 16 16 16 15 15
4 3 5 3 4 8 1 2 2 3 4 4 4 7 7 8 7 6 9 16 16 20 27 30 34 32 30 27 24 22 20 18 18 14 11 10 10 12 15 15 14 13 12 15
4 4 4 10 4 4 5 7 5 4 6 4 3 10 4 7 7 11 14 17 16 22 26 29 31 31 31 28 25 22 20 19 17 14 10 8 10 12 13 13 13 13 11 11
5 1 3 7 5 4 2 5 4 3 1 7 3 8 4 4 6 13 17 25 17 23 25 27 29 31 30 30 27 24 21 19 17 14 10 8 7 7 7 7 8 8 11 11
4 3 7 7 7 3 3 5 8 6 3 4 10 18 27 14 8 12 19 21 17 18 20 24 27 29 28 29 28 25 21 18 16 14 11 8 5 5 5 6 6 6 6 10
4 5 3 7 9 6 15 15 9 11 15 7 20 7 19 18 10 20 27 15 17 18 19 21 24 26 27 29 29 25 21 18 17 14 11 9 5 3 4 6 7 6 4 5
4 4 2 5 8 9 8 17 16 19 15 15 21 25 26 35 23 11 13 12 15 15 16 19 19 21 24 26 27 26 21 17 16 14 13 9 5 4 2 2 3 3 5 5
5 3 2 6 3 7 8 9 6 6 5 7 7 15 2 5 5 11 9 9 13 11 14 18 17 20 20 22 24 25 22 17 16 15 13 11 8 5 4 5 6 6 5 8
5 4 3 4 5 2 6 4 7 10 7 15 8 9 9 11 11 17 15 12 9 7 10 14 16 16 17 17 20 23 23 21 19 18 16 15 13 12 11 10 11 13 14 17
4 4 2 1 2 9 10 3 6 7 7 12 14 15 9 10 8 13 4 6 4 5 9 13 16 16 14 13 15 21 23 24 24 23 22 21 20 18 17 18 19 20 22 25
2 3 3 3 2 6 5 1 2 2 5 7 14 9 6 6 2 4 4 4 2 3 6 10 14 14 13 12 11 14 18 24 26 25 23 22 23 25 26 27 27 28 29 32
3 2 11 8 5 10 14 9 2 5 6 7 10 9 13 5 7 3 5 6 3 3 5 9 12 14 13 12 10 11 12 18 20 21 21 22 24 26 26 27 28 29 31 31
9 8 4 3 3 9 15 7 8 6 4 5 7 10 16 14 8 8 8 9 6 3 4 8 10 13 12 11 10 9 9 13 14 14 17 19 19 20 20 22 21 22 23 24
2 8 6 11 9 6 22 12 21 15 9 8 7 10 14 15 16 12 11 12 8 6 4 6 8 10 10 10 9 9 9 9 11 10 11 12 13 14 14 15 17 18 18 19
5 10 4 2 12 22 30 35 34 28 27 24 21 17 16 20 17 16 14 15 11 8 5 4 6 7 8 8 9 9 9 9 8 8 9 9 10 11 12 12 14 15 16 16
7 11 6 8 21 24 37 37 39 38 35 34 33 32 25 21 21 18 16 16 13 10 7 4 4 5 6 6 8 9 9 10 8 7 9 12 12 12 13 15 17 16 16 14
13 10 6 10 32 17 22 31 26 26 23 19 25 23 26 26 24 20 18 15 14 12 9 6 4 2 3 5 7 8 9 9 9 8 8 10 11 12 13 13 14 15 16 16
Wind_Direction
12 61 149 155 111 158 250 251 259 260 270 329 277 284 284 293 192 172 165 262 318 316 317 312 309 313 315 309 305 305 306 307 301 291 288 279 273 269 269 259 253 251 253 255
19 153 127 77 267 283 242 256 283 290 343 324 296 286 285 249 207 188 166 314 322 329 319 317 316 315 309 306 303 304 306 307 297 293 296 290 273 267 263 253 249 248 255 254
157 176 134 120 323 3 286 192 279 270 333 270 292 294 324 31 125 154 206 333 337 330 320 318 318 313 311 309 308 306 298 298 298 299 298 293 285 269 262 256 243 245 245 249
221 208 144 62 258 116 299 244 309 312 34 274 62 277 297 199 182 158 22 347 335 327 319 322 321 320 318 315 312 308 304 304 299 299 291 286 279 275 254 260 248 251 242 246
260 135 160 130 220 135 242 325 292 289 150 16 326 60 269 185 226 202 352 335 334 320 324 325 324 322 321 320 318 309 303 299 296 296 285 279 283 274 259 259 245 240 240 251
240 176 190 245 289 211 302 329 22 69 101 4 245 114 280 234 202 343 319 328 324 323 329 328 328 331 327 323 319 315 310 306 302 298 285 272 305 260 249 248 237 248 235 236
328 299 98 270 7 12 37 43 354 355 6 227 243 346 244 213 131 190 284 315 327 334 334 338 339 335 332 328 324 318 314 309 304 300 288 281 325 250 252 227 242 247 233 232
109 331 135 288 137 186 45 123 141 254 285 271 18 227 251 181 146 321 322 332 341 346 347 346 343 340 336 330 327 319 316 313 307 305 295 296 310 220 238 239 232 223 225 234
102 281 137 45 60 112 267 71 164 111 137 3 264 288 296 181 314 333 323 352 344 347 351 350 347 345 338 333 326 321 319 315 311 309 313 313 302 236 204 205 208 212 214 221
197 340 233 268 85 16 143 168 32 11 344 303 286 280 243 266 264 305 337 313 327 346 354 355 350 347 344 335 329 325 320 314 313 311 315 319 315 273 242 223 220 217 226 229
129 104 290 62 200 180 23 345 12 129 155 202 294 265 227 222 207 239 281 292 323 340 351 349 349 349 349 345 341 332 326 321 314 306 307 304 295 279 270 253 247 237 244 249
199 154 259 229 266 157 165 190 161 132 270 228 199 268 237 194 204 214 269 299 322 346 352 347 348 350 352 352 350 345 338 332 327 316 315 304 281 268 269 267 255 246 245 244
181 276 350 339 351 359 203 222 173 134 112 220 154 266 299 287 266 243 265 306 324 339 354 344 349 352 355 358 357 354 351 345 340 333 324 307 294 279 266 267 264 257 243 240
161 216 188 209 213 146 264 226 204 152 152 222 227 273 283 276 269 282 295 308 327 344 357 345 349 353 357 1 2 0 358 356 352 348 334 322 296 270 261 253 255 258 266 236
143 223 243 253 253 220 255 254 206 204 218 196 268 222 267 281 292 295 301 302 318 350 354 350 351 349 1 3 6 7 5 4 2 3 356 345 332 281 234 225 232 230 245 240
184 258 98 284 255 246 256 253 226 224 241 252 257 276 274 280 282 265 283 296 311 351 354 352 353 349 4 6 12 15 11 16 17 18 19 10 354 338 254 215 232 186 188 233
170 151 64 265 348 313 289 238 173 186 210 160 172 232 293 283 262 262 298 288 309 349 355 352 357 357 3 14 16 24 23 28 35 42 48 48 44 51 90 116 127 133 159 161
145 123 134 267 358 294 248 190 178 196 215 211 267 265 235 249 281 286 286 283 297 340 357 348 4 13 6 15 26 32 33 42 49 58 64 72 79 89 101 116 124 131 138 136
159 129 304 233 220 299 288 178 159 175 279 206 220 251 270 277 292 294 236 226 284 337 359 352 6 14 13 16 22 36 43 48 54 61 72 80 89 94 100 105 111 116 122 117
154 91 148 83 179 243 254 234 147 123 291 202 189 231 202 161 29 260 203 185 232 328 2 358 7 15 20 23 30 39 45 54 56 61 70 82 89 98 102 106 108 108 107 104
149 205 218 215 247 279 253 236 152 87 245 173 196 211 178 191 211 217 212 195 206 297 347 1 7 18 28 32 32 44 52 59 64 67 71 77 86 90 92 96 98 98 98 97
171 162 194 139 206 274 189 113 176 224 230 222 212 220 216 232 227 224 227 211 210 251 326 358 6 15 25 33 40 47 55 67 73 73 79 79 77 84 93 93 94 95 98 101
263 196 182 187 215 242 196 218 225 214 231 253 256 262 244 237 233 230 233 220 215 238 282 341 360 9 21 32 41 52 61 68 75 81 78 79 83 82 83 89 97 99 98 96
254 186 227 85 250 243 251 248 252 252 253 259 267 267 250 244 243 234 235 229 217 232 257 310 339 6 14 30 45 52 64 68 64 63 66 75 80 84 88 86 87 87 83 84
196 149 192 261 275 275 264 256 268 273 268 264 265 260 254 249 242 234 230 231 221 225 243 268 313 343 14 36 46 53 59 64 74 81 86 96 93 88 89 90 86 85 85 84
182 203 205 248 261 248 263 278 278 277 282 273 261 258 252 241 241 233 228 226 220 226 231 239 246 269 2 29 42 46 52 59 62 60 64 68 74 85 84 79 79 73 68 65